AirNav   Air Wisconsin pilot careers
 
 822 users online  

M95 Richard Arthur Field Airport
Fayette, Alabama, USA

GOING TO FAYETTE?


FAA INFORMATION EFFECTIVE 06 DECEMBER 2018

Location

FAA Identifier: M95
Lat/Long: 33-42-32.7789N / 087-48-54.7521W
33-42.546315N / 087-48.912535W
33.7091053 / -87.8152089
(estimated)
Elevation: 357.1 ft. / 108.8 m (surveyed)
Variation: 03W (2020)
From city: 3 miles NE of FAYETTE, AL
Time zone: UTC -6 (UTC -5 during Daylight Saving Time)
Zip code: 35555

Airport Operations

Airport use: Open to the public
Activation date: 10/1946
Control tower: no
ARTCC: MEMPHIS CENTER
FSS: ANNISTON FLIGHT SERVICE STATION
NOTAMs facility: ANB (NOTAM-D service available)
Attendance: MON-FRI 0800-1200
Wind indicator: lighted
Segmented circle: yes
Lights: ACTVT PAPI RWY 01 & 19; MIRL RWY 01/19 AND TWY LGTS - CTAF.
Beacon: white-green (lighted land airport)
Operates sunset to sunrise.

Airport Communications

CTAF/UNICOM: 122.8
COLUMBUS APPROACH: 126.075
COLUMBUS DEPARTURE: 126.075
  • APCH/DEP SERVICE PRVDD BY MEMPHIS ARTCC ON FREQS 127.1/269.4 (COLUMBUS RCAG) WHEN COLUMBUS APCH CTL CLSD.

Nearby radio navigation aids

VOR radial/distance  VOR name  Freq  Var
LDKr330/30.4CRIMSON VORTAC117.8003E
HABr160/31.0HAMILTON VORTAC110.4002E
CBMr083/31.4CALEDONIA VORTAC115.2000E
IGBr065/37.4BIGBEE VORTAC116.2004E

Airport Services

Fuel available: 100LL JET-A
Parking: tiedowns
Bottled oxygen: NONE
Bulk oxygen: NONE

Runway Information

Runway 1/19

Dimensions: 5008 x 80 ft. / 1526 x 24 m
Surface: asphalt, in fair condition
Weight bearing capacity: 
Single wheel: 15.0
Runway edge lights: medium intensity
RUNWAY 1  RUNWAY 19
Latitude: 33-42.133863N33-42.958767N
Longitude: 087-48.934920W087-48.890148W
Elevation: 330.6 ft.357.1 ft.
Gradient: 0.7%0.7%
Traffic pattern: leftleft
Runway heading: 006 magnetic, 003 true186 magnetic, 183 true
Markings: nonprecision, in fair conditionnonprecision, in fair condition
Visual slope indicator: 2-light PAPI on left (3.00 degrees glide path)2-light PAPI on left (3.00 degrees glide path)
Touchdown point: yes, no lightsyes, no lights
Obstructions: 29 ft. trees, 1210 ft. from runway, 184 ft. right of centerline, 34:1 slope to clear83 ft. trees, 1299 ft. from runway, 178 ft. left of centerline, 13:1 slope to clear

Airport Ownership and Management from official FAA records

Ownership: Publicly-owned
Owner: CITY OF FAYETTE
203 TEMPLE AVE NORTH
FAYETTE, AL 35555
Phone 205-932-5367
Manager: JIM HAYRES
100 21ST STREET NORTH EAST
FAYETTE, AL 35555
Phone 205-932-3819

Airport Operational Statistics

Aircraft based on the field: 10
Single engine airplanes: 10
    
Aircraft operations: avg 42/day *
85% transient general aviation
15% local general aviation
* for 12-month period ending 24 February 2017

Additional Remarks

TWY LGTS FOR TWY TURNOFF ONLY.
DEER ON & INVOF ARPT.

Instrument Procedures

NOTE: All procedures below are presented as PDF files. If you need a reader for these files, you should download the free Adobe Reader.

NOT FOR NAVIGATION. Please procure official charts for flight.
FAA instrument procedures published for use from 6 December 2018 at 0901Z to 3 January 2019 at 0900Z.

 
IAPs - Instrument Approach Procedures
RNAV (GPS) RWY 01   download (210KB)
RNAV (GPS) RWY 19   download (199KB)
NOTE: Special Take-Off Minimums/Departure Procedures apply   download (329KB)

Other nearby airports with instrument procedures:

M55 - Lamar County Airport (17 nm NW)
3M8 - North Pickens Airport (22 nm SW)
KHAB - Marion County-Rankin Fite Airport (26 nm N)
KJFX - Walker County Airport-Bevill Field (28 nm NE)
KTCL - Tuscaloosa Regional Airport (31 nm S)
 
Loc | Ops | Rwys | IFR | FBO | Links
Com | Nav | Svcs | Stats | Notes


 
Area around M95 (Richard Arthur Field Airport)
 
Road maps at: MapQuest Bing Google
 
Aerial photo
WARNING: Photo may not be current or correct
Aerial photo of M95 (Richard Arthur Field Airport)
Taken late October 2007

Do you have a better or more recent aerial photo of Richard Arthur Field Airport that you would like to share? If so, please send us your photo.

 
Sectional chart

 
Airport distance calculator
Flying to Richard Arthur Field Airport? Find the distance to fly.

From to M95

Sunrise and sunset
Times for 14-Dec-2018
 Local
(UTC-6)
 Zulu
(UTC)
Morning civil twilight06:2112:21
Sunrise06:4912:49
Sunset16:4322:43
Evening civil twilight17:1123:11

Current date and time
Zulu (UTC)  15-Dec-2018 03:18:27
Local (UTC-6)  14-Dec-2018 21:18:27
 
METAR
KJFX 
28nm NE 
150255Z AUTO 00000KT 10SM 14/14 A2981 RMK AO2 PWINO
KTCL 
31nm S 
150253Z AUTO 22008KT 10SM SCT024 BKN030 OVC036 14/09 A2985 RMK AO2 SLP105 60002 T01390094 53023
KCBM 
32nm W 
150256Z AUTO 24006KT 10SM FEW029 SCT042 OVC049 11/09 A2982 RMK AO2 SLP101 60021 T01090090 52023
KM40 
35nm W 
150255Z AUTO 00000KT 10SM BKN028 OVC039 10/10 A2983 RMK AO2
K1M4 
36nm N 
150156Z AUTO 12006KT 10SM OVC005 13/12 A2981 RMK AO2 SLP116 T01280122
KGTR 
41nm W 
150256Z AUTO 23006KT 10SM OVC049 11/09 A2984 RMK AO2 SLP106 60023 T01110089 51014
TAF
KTCL 
31nm S 
141743Z 1418/1518 12005KT P6SM VCSH OVC007 FM142300 19005KT P6SM VCSH OVC012 FM150600 21004KT P6SM VCSH OVC008
KCBM 
32nm W 
142334Z 1423/1523 13006KT 8000 -SHRA OVC007 QNH2966INS TEMPO 1423/1501 VRB10G15KT 6000 -TSRA OVC010CB BECMG 1501/1502 20006KT 9000 -SHRA BKN015 BKN060 QNH2980INS BECMG 1502/1503 22006KT 9999 NSW BKN025 QNH2976INS BECMG 1511/1512 VRB06KT 8000 -SHRA OVC002 QNH2987INS BECMG 1519/1520 VRB06KT 4800 BR OVC001 QNH2993INS TX16/1423Z TN08/1514Z LAST NO AMDS AFT 1500 NEXT 1615
NOTAMs
Click for the latest NOTAMs
NOTAMs are issued by the DoD/FAA and will open in a separate window not controlled by AirNav.

 

 
 

Would you like to see your business listed on this page?

 If your business provides an interesting product or service to pilots, flight crews, aircraft, or users of the Richard Arthur Field Airport, you should consider listing it here.  To start the listing process, click on the button below
 
Add a business
 

Other Pages about Richard Arthur Field Airport

Update a link
 
Copyright © AirNav, LLC. All rights reserved. Privacy Policy  Contact